Total_Precipitation_Accumulation
0.04 0.05 0.06 0.07 0.09 0.11 0.12 0.13 0.14 0.15 0.16 0.17 0.18 0.20 0.23 0.25 0.28 0.30 0.31 0.33 0.37 0.36 0.34 0.30 0.28 0.28 0.29 0.31 0.36 0.39 0.40 0.41 0.41 0.44 0.51 0.63 0.62 0.61 0.60 0.59 0.60 0.61 0.63 0.65 0.67 0.69 0.69 0.69 0.67 0.70 0.72 0.67 0.62 0.56 0.51 0.49 0.48 0.46 0.45 0.46 0.42 0.39 0.39 0.39 0.36 0.30 0.25 0.24 0.23
0.06 0.06 0.07 0.10 0.12 0.15 0.17 0.20 0.23 0.26 0.29 0.32 0.32 0.31 0.30 0.30 0.36 0.38 0.39 0.40 0.41 0.41 0.39 0.34 0.33 0.33 0.34 0.35 0.34 0.34 0.34 0.32 0.33 0.35 0.40 0.49 0.54 0.58 0.61 0.63 0.66 0.71 0.73 0.73 0.74 0.73 0.72 0.72 0.70 0.70 0.69 0.66 0.67 0.67 0.62 0.50 0.52 0.53 0.52 0.49 0.50 0.51 0.50 0.47 0.40 0.35 0.31 0.27 0.22
0.04 0.06 0.08 0.13 0.15 0.18 0.22 0.25 0.27 0.30 0.33 0.32 0.31 0.30 0.29 0.30 0.36 0.40 0.42 0.41 0.41 0.40 0.39 0.40 0.39 0.38 0.37 0.36 0.33 0.31 0.29 0.29 0.30 0.30 0.31 0.32 0.35 0.39 0.43 0.48 0.55 0.62 0.68 0.72 0.74 0.75 0.75 0.73 0.68 0.65 0.63 0.60 0.62 0.63 0.60 0.49 0.56 0.61 0.63 0.59 0.57 0.59 0.59 0.54 0.48 0.45 0.44 0.42 0.36
0.02 0.02 0.04 0.09 0.11 0.13 0.15 0.18 0.22 0.25 0.27 0.25 0.26 0.27 0.28 0.28 0.31 0.33 0.33 0.30 0.27 0.25 0.25 0.26 0.26 0.27 0.28 0.28 0.22 0.22 0.24 0.26 0.28 0.30 0.33 0.35 0.38 0.38 0.38 0.40 0.44 0.49 0.55 0.61 0.62 0.63 0.64 0.63 0.63 0.62 0.60 0.55 0.53 0.53 0.52 0.48 0.54 0.61 0.63 0.55 0.55 0.58 0.59 0.54 0.52 0.52 0.53 0.53 0.50
0.01 0.01 0.01 0.04 0.06 0.07 0.08 0.09 0.10 0.12 0.15 0.18 0.21 0.22 0.23 0.24 0.25 0.24 0.20 0.17 0.15 0.13 0.13 0.13 0.14 0.15 0.15 0.10 0.11 0.12 0.14 0.15 0.18 0.21 0.26 0.31 0.39 0.42 0.45 0.50 0.56 0.58 0.61 0.66 0.68 0.67 0.69 0.80 0.80 0.74 0.65 0.58 0.53 0.49 0.46 0.43 0.55 0.59 0.58 0.52 0.50 0.49 0.51 0.56 0.53 0.52 0.52 0.53 0.53
0.00 0.00 0.00 0.01 0.01 0.02 0.04 0.06 0.09 0.11 0.13 0.14 0.17 0.19 0.19 0.16 0.13 0.11 0.10 0.10 0.10 0.10 0.09 0.09 0.09 0.11 0.12 0.12 0.13 0.15 0.17 0.19 0.21 0.25 0.29 0.32 0.40 0.45 0.48 0.51 0.55 0.62 0.70 0.75 0.79 0.83 0.87 0.91 0.95 0.96 0.91 0.75 0.68 0.60 0.53 0.48 0.53 0.55 0.56 0.56 0.48 0.45 0.47 0.50 0.49 0.50 0.52 0.54 0.56
0.00 0.00 0.00 0.00 0.01 0.02 0.03 0.04 0.05 0.07 0.08 0.07 0.06 0.05 0.05 0.04 0.04 0.05 0.06 0.07 0.09 0.11 0.13 0.12 0.18 0.18 0.18 0.19 0.21 0.22 0.24 0.28 0.31 0.34 0.38 0.41 0.42 0.45 0.48 0.50 0.52 0.56 0.61 0.67 0.80 0.82 0.81 0.86 0.94 0.98 0.99 0.95 0.88 0.80 0.73 0.66 0.62 0.69 0.72 0.59 0.52 0.48 0.47 0.48 0.46 0.47 0.49 0.51 0.47
0.00 0.00 0.00 0.00 0.00 0.01 0.01 0.02 0.03 0.04 0.05 0.05 0.05 0.05 0.05 0.04 0.04 0.04 0.05 0.07 0.11 0.13 0.15 0.18 0.21 0.21 0.20 0.20 0.21 0.21 0.23 0.25 0.27 0.30 0.32 0.34 0.35 0.38 0.42 0.45 0.49 0.52 0.54 0.56 0.66 0.65 0.63 0.69 0.75 0.79 0.82 0.85 0.95 0.96 0.92 0.85 0.81 0.87 0.90 0.75 0.65 0.59 0.56 0.55 0.54 0.52 0.51 0.48 0.47
0.00 0.00 0.00 0.00 0.01 0.01 0.01 0.02 0.03 0.04 0.06 0.07 0.08 0.09 0.08 0.07 0.04 0.04 0.05 0.07 0.09 0.11 0.13 0.15 0.20 0.23 0.25 0.25 0.24 0.23 0.21 0.19 0.19 0.19 0.19 0.19 0.20 0.22 0.26 0.29 0.33 0.37 0.40 0.43 0.33 0.37 0.46 0.52 0.56 0.59 0.61 0.62 0.72 0.79 0.85 0.90 0.91 0.91 0.92 0.93 0.84 0.79 0.76 0.73 0.72 0.68 0.68 0.75 0.66
0.00 0.00 0.00 0.00 0.00 0.01 0.01 0.01 0.02 0.04 0.05 0.06 0.07 0.08 0.08 0.07 0.05 0.04 0.04 0.06 0.07 0.09 0.11 0.14 0.21 0.24 0.25 0.25 0.23 0.21 0.19 0.15 0.13 0.11 0.10 0.10 0.10 0.10 0.11 0.13 0.16 0.19 0.22 0.24 0.17 0.21 0.29 0.35 0.39 0.42 0.45 0.47 0.49 0.55 0.62 0.68 0.62 0.65 0.72 0.75 0.75 0.77 0.78 0.77 0.81 0.82 0.81 0.82 0.79
0.00 0.00 0.00 0.00 0.00 0.00 0.01 0.01 0.01 0.01 0.02 0.03 0.05 0.05 0.06 0.06 0.05 0.04 0.05 0.06 0.07 0.07 0.07 0.09 0.14 0.16 0.16 0.17 0.15 0.14 0.12 0.10 0.08 0.07 0.06 0.05 0.05 0.05 0.05 0.06 0.07 0.08 0.09 0.07 0.08 0.10 0.13 0.20 0.23 0.26 0.30 0.33 0.36 0.40 0.45 0.51 0.47 0.49 0.54 0.57 0.56 0.58 0.61 0.62 0.65 0.71 0.71 0.57 0.60
0.00 0.00 0.00 0.00 0.00 0.01 0.01 0.01 0.01 0.02 0.03 0.04 0.06 0.07 0.07 0.07 0.06 0.05 0.06 0.07 0.07 0.07 0.06 0.05 0.05 0.06 0.07 0.07 0.07 0.07 0.06 0.06 0.04 0.03 0.03 0.03 0.03 0.03 0.04 0.04 0.04 0.05 0.06 0.06 0.07 0.08 0.10 0.12 0.14 0.16 0.18 0.21 0.24 0.28 0.32 0.36 0.35 0.38 0.43 0.46 0.45 0.45 0.45 0.45 0.46 0.48 0.47 0.38 0.41
0.00 0.00 0.00 0.01 0.01 0.02 0.02 0.02 0.03 0.04 0.05 0.07 0.08 0.09 0.09 0.09 0.08 0.08 0.07 0.07 0.07 0.06 0.06 0.05 0.05 0.05 0.05 0.05 0.05 0.05 0.05 0.04 0.04 0.04 0.04 0.03 0.03 0.04 0.04 0.04 0.05 0.06 0.07 0.08 0.08 0.08 0.09 0.09 0.10 0.11 0.12 0.14 0.16 0.19 0.20 0.19 0.23 0.27 0.31 0.35 0.37 0.39 0.39 0.38 0.35 0.31 0.28 0.30 0.30
0.00 0.00 0.01 0.01 0.02 0.02 0.03 0.04 0.05 0.06 0.07 0.09 0.10 0.11 0.11 0.11 0.11 0.11 0.10 0.08 0.07 0.07 0.07 0.07 0.06 0.05 0.05 0.05 0.05 0.04 0.04 0.04 0.05 0.05 0.05 0.05 0.05 0.05 0.05 0.05 0.06 0.07 0.08 0.08 0.09 0.09 0.09 0.09 0.09 0.09 0.10 0.11 0.13 0.15 0.16 0.16 0.18 0.20 0.22 0.25 0.28 0.31 0.33 0.35 0.33 0.30 0.28 0.26 0.26
0.00 0.00 0.01 0.02 0.02 0.03 0.04 0.05 0.06 0.07 0.08 0.10 0.10 0.10 0.11 0.11 0.12 0.14 0.16 0.15 0.12 0.12 0.12 0.10 0.08 0.07 0.07 0.06 0.06 0.05 0.04 0.05 0.05 0.06 0.07 0.07 0.07 0.07 0.07 0.07 0.08 0.08 0.09 0.09 0.09 0.09 0.09 0.09 0.09 0.08 0.09 0.09 0.11 0.12 0.13 0.14 0.16 0.17 0.19 0.19 0.20 0.23 0.27 0.30 0.30 0.30 0.28 0.25 0.25
0.00 0.00 0.01 0.02 0.02 0.04 0.05 0.07 0.07 0.08 0.09 0.09 0.10 0.10 0.11 0.11 0.12 0.17 0.23 0.25 0.24 0.22 0.19 0.14 0.12 0.10 0.08 0.08 0.07 0.07 0.06 0.06 0.06 0.07 0.07 0.07 0.08 0.08 0.09 0.09 0.09 0.09 0.10 0.10 0.10 0.10 0.09 0.09 0.08 0.08 0.08 0.09 0.10 0.10 0.11 0.12 0.14 0.16 0.17 0.18 0.17 0.18 0.20 0.23 0.25 0.26 0.26 0.26 0.26
0.00 0.00 0.01 0.02 0.03 0.04 0.06 0.07 0.08 0.09 0.10 0.10 0.10 0.11 0.11 0.11 0.12 0.16 0.23 0.29 0.32 0.32 0.29 0.23 0.18 0.15 0.13 0.11 0.11 0.09 0.08 0.08 0.08 0.08 0.07 0.07 0.08 0.09 0.09 0.09 0.10 0.10 0.11 0.12 0.12 0.12 0.11 0.10 0.09 0.09 0.09 0.09 0.10 0.11 0.11 0.12 0.13 0.14 0.16 0.17 0.17 0.17 0.16 0.17 0.17 0.19 0.22 0.25 0.26
0.00 0.00 0.01 0.01 0.03 0.04 0.06 0.08 0.09 0.10 0.11 0.12 0.11 0.12 0.12 0.12 0.12 0.14 0.18 0.24 0.28 0.33 0.36 0.34 0.29 0.23 0.19 0.17 0.16 0.14 0.12 0.12 0.10 0.09 0.08 0.07 0.08 0.08 0.09 0.09 0.10 0.11 0.12 0.13 0.14 0.13 0.13 0.12 0.11 0.11 0.10 0.10 0.12 0.12 0.12 0.12 0.13 0.14 0.16 0.17 0.17 0.17 0.16 0.15 0.15 0.16 0.18 0.21 0.22
0.01 0.01 0.01 0.01 0.02 0.03 0.05 0.08 0.10 0.12 0.14 0.15 0.15 0.15 0.15 0.15 0.14 0.15 0.17 0.21 0.24 0.29 0.35 0.41 0.38 0.32 0.26 0.22 0.21 0.19 0.18 0.16 0.14 0.12 0.11 0.09 0.10 0.11 0.11 0.11 0.11 0.12 0.13 0.14 0.15 0.15 0.14 0.13 0.13 0.13 0.13 0.13 0.15 0.15 0.15 0.13 0.14 0.15 0.16 0.17 0.17 0.17 0.17 0.16 0.16 0.16 0.17 0.17 0.18
0.01 0.02 0.02 0.02 0.02 0.03 0.04 0.06 0.09 0.13 0.17 0.19 0.20 0.21 0.21 0.20 0.18 0.17 0.18 0.20 0.25 0.30 0.35 0.41 0.41 0.37 0.32 0.24 0.24 0.24 0.22 0.20 0.18 0.16 0.14 0.13 0.15 0.14 0.13 0.13 0.13 0.14 0.14 0.15 0.16 0.16 0.15 0.14 0.14 0.14 0.15 0.15 0.17 0.17 0.17 0.15 0.16 0.16 0.17 0.17 0.17 0.17 0.17 0.17 0.17 0.17 0.16 0.16 0.17
0.01 0.01 0.02 0.03 0.03 0.04 0.05 0.07 0.10 0.15 0.21 0.23 0.25 0.26 0.28 0.27 0.25 0.23 0.22 0.25 0.31 0.35 0.39 0.44 0.43 0.40 0.35 0.28 0.26 0.25 0.24 0.24 0.22 0.20 0.19 0.20 0.18 0.16 0.15 0.17 0.17 0.17 0.18 0.20 0.20 0.19 0.18 0.16 0.16 0.17 0.17 0.18 0.19 0.19 0.18 0.17 0.18 0.18 0.18 0.18 0.18 0.17 0.18 0.18 0.18 0.17 0.17 0.17 0.17
0.01 0.02 0.02 0.03 0.04 0.06 0.08 0.10 0.12 0.19 0.26 0.28 0.29 0.32 0.34 0.36 0.32 0.28 0.28 0.34 0.40 0.43 0.45 0.49 0.47 0.44 0.39 0.32 0.26 0.25 0.26 0.28 0.26 0.26 0.27 0.27 0.24 0.19 0.16 0.17 0.19 0.20 0.22 0.24 0.23 0.21 0.20 0.19 0.19 0.19 0.19 0.20 0.21 0.20 0.19 0.19 0.19 0.20 0.20 0.20 0.19 0.19 0.20 0.21 0.20 0.19 0.18 0.18 0.17
0.03 0.03 0.04 0.04 0.05 0.07 0.09 0.11 0.18 0.24 0.29 0.33 0.35 0.38 0.42 0.45 0.41 0.38 0.38 0.46 0.47 0.49 0.52 0.56 0.53 0.48 0.42 0.36 0.28 0.26 0.27 0.29 0.32 0.33 0.32 0.30 0.28 0.25 0.21 0.18 0.20 0.21 0.22 0.23 0.23 0.23 0.22 0.23 0.20 0.20 0.21 0.21 0.22 0.22 0.21 0.21 0.20 0.21 0.22 0.21 0.21 0.21 0.23 0.23 0.21 0.20 0.20 0.20 0.19
0.05 0.06 0.06 0.06 0.07 0.07 0.08 0.10 0.18 0.23 0.28 0.32 0.36 0.41 0.45 0.51 0.52 0.53 0.54 0.59 0.59 0.58 0.58 0.58 0.57 0.54 0.50 0.44 0.34 0.30 0.30 0.32 0.34 0.35 0.35 0.33 0.31 0.28 0.25 0.22 0.22 0.22 0.21 0.20 0.19 0.19 0.20 0.23 0.22 0.22 0.22 0.24 0.24 0.23 0.22 0.21 0.21 0.22 0.22 0.21 0.22 0.23 0.25 0.24 0.22 0.22 0.21 0.21 0.21
0.08 0.08 0.08 0.08 0.08 0.08 0.08 0.08 0.13 0.17 0.20 0.24 0.30 0.36 0.42 0.50 0.57 0.61 0.65 0.70 0.70 0.68 0.65 0.61 0.65 0.65 0.63 0.58 0.49 0.42 0.38 0.37 0.35 0.35 0.36 0.37 0.34 0.32 0.30 0.28 0.25 0.24 0.22 0.20 0.17 0.16 0.15 0.15 0.17 0.17 0.18 0.22 0.23 0.24 0.24 0.22 0.23 0.23 0.22 0.23 0.24 0.26 0.27 0.26 0.25 0.23 0.22 0.21 0.19
0.11 0.11 0.10 0.09 0.08 0.08 0.08 0.08 0.09 0.11 0.13 0.16 0.22 0.29 0.36 0.43 0.51 0.58 0.66 0.78 0.83 0.80 0.76 0.78 0.78 0.80 0.80 0.72 0.72 0.62 0.49 0.44 0.40 0.38 0.37 0.37 0.37 0.36 0.34 0.31 0.29 0.27 0.24 0.20 0.17 0.14 0.13 0.12 0.12 0.13 0.15 0.20 0.23 0.24 0.24 0.23 0.23 0.23 0.23 0.24 0.24 0.25 0.26 0.28 0.27 0.26 0.24 0.22 0.20
0.14 0.12 0.10 0.08 0.08 0.07 0.07 0.07 0.07 0.08 0.09 0.12 0.15 0.20 0.25 0.32 0.39 0.48 0.61 0.78 0.90 0.95 0.95 0.94 0.99 1.00 1.03 1.11 0.95 0.82 0.68 0.54 0.50 0.46 0.43 0.40 0.39 0.38 0.37 0.34 0.32 0.29 0.25 0.20 0.16 0.13 0.12 0.11 0.12 0.14 0.16 0.19 0.20 0.20 0.21 0.22 0.22 0.23 0.24 0.24 0.25 0.24 0.23 0.23 0.25 0.26 0.26 0.25 0.23
0.20 0.17 0.13 0.10 0.08 0.07 0.06 0.06 0.07 0.08 0.08 0.09 0.11 0.14 0.17 0.21 0.28 0.36 0.46 0.57 0.85 0.99 1.05 1.09 1.18 1.37 1.49 1.37 1.08 0.87 0.72 0.63 0.60 0.57 0.55 0.51 0.47 0.43 0.40 0.38 0.35 0.33 0.29 0.23 0.19 0.16 0.14 0.17 0.16 0.16 0.17 0.19 0.21 0.22 0.21 0.21 0.21 0.22 0.23 0.24 0.25 0.25 0.25 0.24 0.25 0.26 0.26 0.26 0.24
0.27 0.24 0.19 0.15 0.12 0.09 0.07 0.07 0.08 0.08 0.07 0.07 0.09 0.11 0.14 0.19 0.22 0.27 0.35 0.46 0.74 0.95 1.08 1.13 1.28 1.47 1.54 1.34 1.03 0.86 0.76 0.68 0.67 0.65 0.63 0.62 0.59 0.55 0.50 0.43 0.39 0.35 0.32 0.26 0.23 0.21 0.21 0.24 0.22 0.20 0.20 0.20 0.23 0.26 0.26 0.24 0.22 0.22 0.23 0.25 0.23 0.23 0.24 0.25 0.24 0.23 0.23 0.23 0.24
0.30 0.30 0.27 0.22 0.16 0.13 0.11 0.10 0.10 0.09 0.08 0.07 0.08 0.10 0.13 0.17 0.19 0.21 0.25 0.30 0.54 0.55 0.55 0.77 1.08 1.30 1.35 1.13 0.94 0.84 0.77 0.72 0.67 0.65 0.64 0.63 0.61 0.60 0.57 0.50 0.44 0.40 0.37 0.36 0.33 0.36 0.38 0.33 0.30 0.27 0.25 0.24 0.25 0.28 0.30 0.30 0.27 0.25 0.24 0.22 0.21 0.21 0.22 0.24 0.24 0.23 0.22 0.23 0.21
0.26 0.30 0.32 0.31 0.22 0.17 0.14 0.13 0.13 0.12 0.10 0.08 0.08 0.10 0.12 0.14 0.16 0.17 0.18 0.18 0.28 0.37 0.47 0.64 0.92 1.09 1.14 1.06 0.97 0.88 0.79 0.69 0.66 0.63 0.61 0.59 0.58 0.56 0.53 0.48 0.46 0.45 0.46 0.47 0.48 0.50 0.49 0.43 0.38 0.35 0.32 0.30 0.31 0.31 0.32 0.33 0.30 0.27 0.24 0.21 0.20 0.20 0.20 0.21 0.20 0.20 0.20 0.19 0.20
0.20 0.24 0.27 0.29 0.27 0.23 0.19 0.16 0.16 0.15 0.13 0.10 0.08 0.08 0.09 0.08 0.09 0.10 0.12 0.16 0.29 0.40 0.49 0.55 0.70 0.88 1.05 1.14 1.08 0.97 0.83 0.70 0.66 0.61 0.56 0.54 0.54 0.52 0.48 0.44 0.46 0.50 0.54 0.56 0.65 0.67 0.62 0.51 0.46 0.43 0.41 0.39 0.38 0.37 0.36 0.34 0.32 0.30 0.27 0.25 0.21 0.19 0.19 0.19 0.19 0.18 0.17 0.17 0.17
0.14 0.17 0.20 0.23 0.24 0.22 0.20 0.18 0.17 0.16 0.15 0.13 0.09 0.07 0.07 0.07 0.09 0.11 0.13 0.16 0.21 0.31 0.40 0.43 0.50 0.63 0.82 1.08 1.10 1.02 0.89 0.76 0.64 0.58 0.55 0.54 0.54 0.50 0.46 0.42 0.45 0.50 0.56 0.62 0.66 0.66 0.64 0.58 0.55 0.52 0.49 0.46 0.44 0.43 0.42 0.39 0.35 0.34 0.33 0.31 0.28 0.23 0.20 0.18 0.18 0.17 0.17 0.17 0.19
0.10 0.12 0.13 0.15 0.19 0.20 0.20 0.19 0.17 0.16 0.16 0.14 0.11 0.08 0.07 0.08 0.10 0.13 0.16 0.17 0.20 0.28 0.36 0.40 0.42 0.47 0.60 0.86 1.06 1.06 0.94 0.80 0.65 0.59 0.59 0.61 0.58 0.51 0.44 0.40 0.42 0.46 0.52 0.59 0.58 0.59 0.60 0.61 0.62 0.60 0.56 0.52 0.47 0.45 0.44 0.43 0.39 0.36 0.34 0.31 0.30 0.28 0.25 0.22 0.21 0.20 0.20 0.19 0.23
0.08 0.09 0.10 0.10 0.12 0.15 0.17 0.17 0.16 0.15 0.14 0.14 0.13 0.11 0.10 0.09 0.12 0.14 0.17 0.20 0.22 0.30 0.41 0.48 0.51 0.53 0.60 0.78 1.09 1.16 1.06 0.90 0.73 0.64 0.60 0.62 0.58 0.51 0.43 0.37 0.39 0.44 0.49 0.52 0.50 0.50 0.52 0.53 0.56 0.57 0.56 0.53 0.50 0.47 0.44 0.41 0.39 0.35 0.32 0.30 0.30 0.29 0.28 0.28 0.28 0.27 0.26 0.25 0.25
0.07 0.08 0.09 0.08 0.09 0.10 0.12 0.15 0.14 0.13 0.13 0.12 0.12 0.12 0.13 0.13 0.14 0.16 0.18 0.22 0.27 0.34 0.44 0.55 0.63 0.65 0.69 0.79 1.10 1.22 1.19 1.04 0.79 0.65 0.59 0.57 0.54 0.47 0.40 0.36 0.38 0.44 0.48 0.44 0.44 0.45 0.47 0.49 0.50 0.49 0.48 0.47 0.47 0.45 0.42 0.40 0.37 0.33 0.31 0.30 0.30 0.30 0.30 0.30 0.30 0.30 0.29 0.26 0.25
0.06 0.07 0.08 0.08 0.08 0.08 0.08 0.12 0.11 0.11 0.11 0.10 0.13 0.15 0.16 0.16 0.19 0.20 0.22 0.26 0.34 0.38 0.43 0.54 0.63 0.65 0.65 0.70 0.86 1.08 1.22 1.16 0.91 0.72 0.59 0.52 0.51 0.45 0.38 0.33 0.39 0.43 0.44 0.41 0.41 0.43 0.44 0.44 0.42 0.39 0.37 0.37 0.39 0.39 0.39 0.36 0.35 0.35 0.34 0.33 0.33 0.33 0.32 0.32 0.31 0.29 0.27 0.25 0.24
0.04 0.05 0.06 0.07 0.07 0.07 0.08 0.08 0.09 0.09 0.09 0.09 0.12 0.15 0.19 0.22 0.24 0.25 0.26 0.30 0.38 0.40 0.44 0.53 0.59 0.61 0.61 0.63 0.71 0.97 1.21 1.26 1.06 0.80 0.58 0.48 0.44 0.41 0.38 0.31 0.41 0.43 0.41 0.39 0.39 0.41 0.42 0.41 0.36 0.32 0.29 0.29 0.30 0.31 0.30 0.27 0.30 0.32 0.33 0.33 0.35 0.36 0.35 0.33 0.31 0.29 0.27 0.26 0.26
0.03 0.04 0.05 0.06 0.06 0.07 0.07 0.05 0.06 0.06 0.06 0.07 0.10 0.14 0.20 0.27 0.30 0.30 0.31 0.32 0.37 0.39 0.43 0.49 0.59 0.63 0.66 0.69 0.77 0.98 1.19 1.31 1.16 0.88 0.61 0.46 0.39 0.34 0.31 0.30 0.40 0.42 0.40 0.38 0.38 0.39 0.39 0.35 0.31 0.27 0.24 0.23 0.23 0.24 0.23 0.20 0.24 0.26 0.28 0.31 0.34 0.35 0.34 0.31 0.29 0.28 0.28 0.29 0.28
0.01 0.02 0.03 0.04 0.05 0.05 0.05 0.05 0.05 0.05 0.05 0.06 0.08 0.12 0.18 0.26 0.33 0.37 0.38 0.38 0.39 0.41 0.43 0.45 0.62 0.71 0.76 0.81 0.85 0.96 1.11 1.28 1.20 0.97 0.68 0.45 0.35 0.30 0.29 0.34 0.41 0.44 0.42 0.40 0.39 0.38 0.35 0.30 0.26 0.23 0.21 0.20 0.20 0.19 0.17 0.16 0.18 0.21 0.24 0.27 0.27 0.28 0.29 0.28 0.27 0.27 0.28 0.29 0.27
0.02 0.02 0.02 0.03 0.04 0.04 0.05 0.06 0.06 0.06 0.06 0.06 0.07 0.09 0.14 0.21 0.32 0.40 0.46 0.47 0.47 0.48 0.50 0.54 0.74 0.84 0.87 0.87 0.83 0.86 0.98 1.22 1.18 1.02 0.77 0.45 0.33 0.28 0.31 0.38 0.43 0.46 0.47 0.46 0.43 0.38 0.32 0.27 0.22 0.19 0.17 0.17 0.17 0.15 0.14 0.14 0.15 0.17 0.19 0.20 0.19 0.20 0.21 0.24 0.25 0.25 0.25 0.24 0.24